FW6400 Weather Reports


time (UTC)temp
F
wind
direction
speed
knots
gust
knots
rain 1hr
in
rain 24hr
in
rain mn
in
humidity
%
barometer
mb
20260506201511 65 0.0 3.5 0.00 0.00 0.00 87 1008.5
20260506200033 65 0.0 2.6 0.00 0.00 0.00 87 1008.7
20260506194505 64 0.0 2.6 0.00 0.00 0.00 89 1008.9
20260506193039 64 0.0 3.5 0.00 0.00 0.00 89 1009.4
20260506191523 64 0.9 3.5 0.00 0.00 0.00 91 1009.2
20260506190106 62 0.9 2.6 0.00 0.00 0.00 92 1009.5
20260506184551 62 0.9 4.3 0.00 0.00 0.00 93 1009.8
20260506183045 61 0.9 3.5 0.00 0.00 0.00 93 1010.1
20260506181521 61 0.0 1.7 0.00 0.00 0.00 94 1010.1
20260506180101 61 0.0 1.7 0.00 0.00 0.00 92 1010.6
20260506174553 61 0.0 2.6 0.00 0.00 0.00 91 1010.6
20260506173014 62 0.9 3.5 0.00 0.00 0.00 90 1010.7
20260506171553 62 0.9 1.7 0.00 0.00 0.00 89 1010.7
20260506170116 62 0.0 2.6 0.00 0.00 0.00 88 1010.9
20260506164545 62 0.9 3.5 0.00 0.00 0.00 87 1011.2
20260506163004 63 0.9 3.5 0.00 0.00 0.00 86 1011.6
20260506161543 63 0.9 3.5 0.00 0.00 0.00 85 1011.7
20260506160025 63 0.9 3.5 0.00 0.00 0.00 86 1011.8
20260506154509 63 0.9 6.1 0.00 0.00 0.00 84 1011.9
20260506153040 64 0.9 3.5 0.00 0.00 0.00 84 1011.9
20260506151506 66 0.9 3.5 0.00 0.00 0.00 82 1011.9
20260506150011 65 0.9 3.5 0.00 0.00 0.00 83 1011.9
20260506144608 65 0.9 2.6 0.00 0.00 0.00 83 1012.2
20260506143045 65 0.9 4.3 0.00 0.00 0.00 83 1012.4
20260506141537 65 0.9 3.5 0.00 0.00 0.00 84 1012.4
20260506140022 64 0.0 2.6 0.00 0.00 0.00 86 1012.3
20260506134559 63 0.0 3.5 0.00 0.00 0.00 86 1012.4
20260506133043 63 0.0 3.5 0.00 0.00 0.00 87 1012.5
20260506131618 63 0.9 2.6 0.00 0.00 0.00 86 1012.7
20260506130058 63 0.9 4.3 0.00 0.00 0.00 87 1012.8
20260506124524 62 0.9 4.3 0.00 0.00 0.00 88 1012.8
20260506123057 61 0.9 3.5 0.00 0.00 0.00 89 1012.7
20260506121524 60 0.9 5.2 0.00 0.00 0.00 90 1012.7
20260506120002 60 0.0 2.6 0.00 0.00 0.00 91 1012.6
20260506114555 59 0.0 2.6 0.00 0.00 0.00 92 1012.5
20260506113035 59 0.9 2.6 0.00 0.00 0.00 93 1012.5
20260506111517 58 0.0 2.6 0.00 0.00 0.00 93 1012.7
20260506110105 58 0.9 2.6 0.00 0.00 0.00 94 1012.6
20260506104538 58 0.0 3.5 0.00 0.00 0.00 94 1012.5
20260506103009 57 0.0 2.6 0.00 0.00 0.00 94 1012.4
20260506101547 57 0.9 2.6 0.00 0.00 0.00 95 1012.4
20260506100030 57 0.9 7.0 0.00 0.00 0.00 95 1012.4
20260506094542 57 0.0 2.6 0.00 0.00 0.00 94 1012.2
20260506093025 57 0.0 3.5 0.00 0.00 0.00 94 1012.1
20260506091554 57 0.0 2.6 0.00 0.00 0.00 94 1012.5
20260506090043 57 0.0 3.5 0.00 0.00 0.00 94 1012.6
20260506084617 57 0.0 3.5 0.00 0.00 0.00 94 1012.8
20260506083050 57 0.0 2.6 0.00 0.00 0.00 94 1012.9
20260506081513 57 0.0 2.6 0.00 0.00 0.00 94 1012.7
20260506073003 58 0.0 7.8 0.00 0.00 0.00 93 1012.7
20260506071556 58 0.0 3.5 0.00 0.00 0.00 93 1012.8
20260506061554 58 0.0 4.3 0.00 0.00 0.00 91 1013.0
20260506050107 59 0.9 3.5 0.00 0.00 0.00 89 1013.3
20260506044547 59 0.0 5.2 0.00 0.00 0.00 89 1013.4
20260506043034 59 0.0 5.2 0.00 0.00 0.00 89 1013.2
20260506041505 59 0.9 5.2 0.00 0.00 0.00 88 1013.3
20260506040107 59 0.9 4.3 0.00 0.00 0.00 88 1013.2
20260506034538 59 0.0 4.3 0.00 0.00 0.00 88 1013.1
20260506033018 59 0.9 4.3 0.00 0.00 0.00 88 1013.4
20260506031552 59 0.9 3.5 0.00 0.00 0.00 87 1013.3
20260506030042 59 0.9 7.0 0.00 0.00 0.00 87 1013.3
20260506024510 59 0.9 5.2 0.00 0.00 0.00 86 1013.4
20260506023028 60 1.7 7.8 0.00 0.00 0.00 86 1013.3
20260506021514 60 1.7 6.1 0.00 0.00 0.00 86 1013.4
20260506014555 60 0.9 7.8 0.00 0.00 0.00 86 1013.3
20260506013015 59 2.6 7.0 0.00 0.00 0.00 86 1013.0
20260506011535 59 1.7 6.1 0.00 0.00 0.00 87 1013.1
20260506010055 59 0.9 3.5 0.00 0.00 0.00 87 1013.0
20260506004519 60 0.9 5.2 0.00 0.00 0.00 86 1012.8
20260506003005 60 0.9 7.0 0.00 0.00 0.00 86 1012.8
20260506001542 60 0.9 5.2 0.00 0.00 0.00 85 1012.8
20260506000020 61 0.9 4.3 0.00 0.00 0.00 83 1012.7
20260505234503 62 0.9 7.0 0.00 0.00 0.00 82 1012.6
20260505233050 62 1.7 5.2 0.00 0.00 0.00 80 1012.5
20260505231504 63 1.7 7.8 0.00 0.00 0.00 78 1012.4
20260505230051 64 1.7 7.0 0.00 0.00 0.00 77 1012.4
20260505224510 64 1.7 6.1 0.00 0.00 0.00 75 1012.2
20260505223108 65 1.7 5.2 0.00 0.00 0.00 74 1012.1
20260505221526 65 1.7 7.0 0.00 0.00 0.00 74 1012.0
20260505220009 65 0.9 5.2 0.00 0.00 0.00 74 1012.0
20260505214619 66 1.7 6.1 0.00 0.00 0.00 74 1011.8
20260505213040 66 1.7 7.8 0.00 0.00 0.00 74 1011.7
20260505211505 66 1.7 7.8 0.00 0.00 0.00 75 1011.5
20260505210058 66 2.6 6.1 0.00 0.00 0.00 73 1011.6
20260505204545 67 1.7 6.1 0.00 0.00 0.00 73 1011.6
20260505203005 68 1.7 11.3 0.00 0.00 0.00 72 1011.6